weather.gov     
National Weather Service

Terminal Aerodrome Forecast
NWS Homepage
This page is being discontinued on March 12, 2014.
The same data is available at this site. Please update your bookmarks.
Thank you, and we apologize for the inconvenience.
Please send an email to SR-SRH.Webmaster@noaa.gov with any concerns.


Current Version
Previous Version:    01  02  03  04  05  06  07  08  09  10  11  12  13  14  15  16  17  18  19  20  21  22  23  24  25  26  27  28  29  
[Printable]
425
FTUS42 KJAX 231200 AAB
TAFSSI
TAF AMD
KSSI 231241Z 2313/2412 10012KT 3SM -RA VCTS SCT003 OVC010CB
      TEMPO 2313/2314 1SM RA BKN003 OVC015
     FM231500 14014G22KT P6SM VCSH SCT025 BKN035
     FM231900 17015G25KT P6SM VCTS BKN035CB
     FM240100 18012KT P6SM VCSH SCT035 BKN050=


U.S. Dept. of Commerce
NOAA National Weather Service
1325 East West Highway
Silver Spring, MD 20910
E-mail: w-nws.webmaster@noaa.gov
Page last modified: May 16, 2007
NATIONAL WEATHER SERVICE: for Safety, for Work, for Fun - FOR LIFE